When you browse on this site, cookies collect data to enhance your experience and personalize the content and advertising you see.
Visit our Privacy Policy to learn more. By continuing to use the site, you agree to this use of cookies and data.
  • In Latvia
  • List of Countries
  • For 7 days
  • Water Temperature
  • Weather Map
  • Weather Widgets
  • user-avatar
    Login

    Hourly Weather Shaki

    Today, 3 June, Wednesday

    Time Temperature Precipitation Wind Pressure Humidity
    00:00 +21°C° 0.2 mm 2 mps 727 mmHg 67%
    01:00 +21°C° 0.3 mm 2 mps 727 mmHg 72%
    02:00 +20°C° 0.3 mm 2 mps 727 mmHg 76%
    03:00 +20°C° 0 mm 2 mps 727 mmHg 83%
    04:00 +21°C° 0.1 mm 3 mps 727 mmHg 79%
    05:00 +22°C° 0.1 mm 3 mps 727 mmHg 75%
    06:00 +24°C° 0.1 mm 3 mps 727 mmHg 72%
    07:00 +26°C° 0 mm 3 mps 727 mmHg 64%
    08:00 +28°C° 0 mm 4 mps 727 mmHg 55%
    09:00 +30°C° 0 mm 4 mps 727 mmHg 47%
    10:00 +33°C° 0 mm 4 mps 727 mmHg 39%
    11:00 +35°C° 0 mm 5 mps 727 mmHg 31%
    12:00 +37°C° 0 mm 5 mps 727 mmHg 23%
    13:00 +37°C° 0 mm 5 mps 727 mmHg 22%
    14:00 +38°C° 0 mm 6 mps 727 mmHg 21%
    15:00 +38°C° 0 mm 6 mps 727 mmHg 20%
    16:00 +34°C° 0.2 mm 5 mps 728 mmHg 32%
    17:00 +30°C° 0.2 mm 4 mps 728 mmHg 43%
    18:00 +26°C° 0.2 mm 3 mps 729 mmHg 54%
    19:00 +25°C° 0.1 mm 3 mps 729 mmHg 54%
    20:00 +25°C° 0.1 mm 2 mps 730 mmHg 55%
    21:00 +24°C° 0.1 mm 2 mps 730 mmHg 55%
    22:00 +23°C° 0.1 mm 2 mps 730 mmHg 58%
    23:00 +21°C° 0.1 mm 2 mps 730 mmHg 61%

    Tomorrow, 4 June, Thursday

    Time Temperature Precipitation Wind Pressure Humidity
    00:00 +21°C° 0.1 mm 2 mps 730 mmHg 64%
    01:00 +20°C° 0 mm 2 mps 730 mmHg 65%
    02:00 +20°C° 0 mm 2 mps 730 mmHg 65%
    03:00 +21°C° 0 mm 1 mps 731 mmHg 66%
    04:00 +22°C° 0 mm 1 mps 731 mmHg 65%
    05:00 +22°C° 0 mm 1 mps 731 mmHg 63%
    06:00 +23°C° 0 mm 1 mps 732 mmHg 62%
    07:00 +25°C° 0 mm 1 mps 732 mmHg 56%
    08:00 +27°C° 0 mm 2 mps 732 mmHg 51%
    09:00 +29°C° 0 mm 3 mps 732 mmHg 45%
    10:00 +30°C° 0 mm 3 mps 732 mmHg 43%
    11:00 +33°C° 0 mm 4 mps 732 mmHg 40%
    12:00 +34°C° 0 mm 4 mps 732 mmHg 37%
    13:00 +34°C° 0 mm 5 mps 732 mmHg 36%
    14:00 +35°C° 0 mm 5 mps 732 mmHg 35%
    15:00 +35°C° 0 mm 5 mps 732 mmHg 34%
    16:00 +34°C° 0.1 mm 6 mps 732 mmHg 40%
    17:00 +33°C° 0.1 mm 6 mps 732 mmHg 45%
    18:00 +30°C° 0.1 mm 6 mps 732 mmHg 51%
    19:00 +28°C° 0.1 mm 6 mps 732 mmHg 56%
    20:00 +26°C° 0.1 mm 6 mps 733 mmHg 61%
    21:00 +23°C° 0.1 mm 6 mps 733 mmHg 67%
    22:00 +22°C° 0 mm 4 mps 733 mmHg 69%
    23:00 +21°C° 0 mm 3 mps 733 mmHg 71%

    Day after tomorrow, 5 June, Friday

    Time Temperature Precipitation Wind Pressure Humidity
    00:00 +20°C° 0 mm 2 mps 733 mmHg 73%
    01:00 +20°C° 0.2 mm 2 mps 733 mmHg 75%
    02:00 +20°C° 0.2 mm 2 mps 733 mmHg 76%
    03:00 +20°C° 0.2 mm 2 mps 734 mmHg 78%
    04:00 +20°C° 0 mm 2 mps 734 mmHg 78%
    05:00 +21°C° 0 mm 3 mps 734 mmHg 78%
    06:00 +21°C° 0 mm 3 mps 734 mmHg 78%
    07:00 +23°C° 0 mm 4 mps 735 mmHg 71%
    08:00 +26°C° 0 mm 4 mps 735 mmHg 63%
    09:00 +28°C° 0 mm 4 mps 735 mmHg 56%
    10:00 +29°C° 0 mm 4 mps 735 mmHg 49%
    11:00 +32°C° 0 mm 4 mps 735 mmHg 43%
    12:00 +33°C° 0 mm 4 mps 735 mmHg 37%
    13:00 +34°C° 0 mm 4 mps 734 mmHg 33%
    14:00 +34°C° 0 mm 4 mps 734 mmHg 30%
    15:00 +35°C° 0 mm 4 mps 734 mmHg 27%
    16:00 +33°C° 0.2 mm 3 mps 735 mmHg 32%
    17:00 +31°C° 0.2 mm 2 mps 735 mmHg 37%
    18:00 +29°C° 0.2 mm 1 mps 735 mmHg 42%
    19:00 +27°C° 0.2 mm 2 mps 736 mmHg 49%
    20:00 +25°C° 0.2 mm 2 mps 737 mmHg 55%
    21:00 +22°C° 0.2 mm 3 mps 737 mmHg 62%
    22:00 +22°C° 0 mm 3 mps 737 mmHg 64%
    23:00 +21°C° 0 mm 2 mps 737 mmHg 66%

    6 June, Saturday

    Time Temperature Precipitation Wind Pressure Humidity
    00:00 +20°C° 0 mm 2 mps 737 mmHg 69%
    01:00 +20°C° 0 mm 2 mps 738 mmHg 69%
    02:00 +19°C° 0 mm 2 mps 738 mmHg 70%
    03:00 +19°C° 0 mm 2 mps 738 mmHg 71%
    04:00 +20°C° 0 mm 2 mps 738 mmHg 68%
    05:00 +21°C° 0 mm 2 mps 738 mmHg 66%
    06:00 +23°C° 0 mm 2 mps 738 mmHg 63%
    07:00 +24°C° 0 mm 3 mps 738 mmHg 59%
    08:00 +25°C° 0 mm 3 mps 738 mmHg 55%
    09:00 +26°C° 0 mm 3 mps 738 mmHg 51%
    10:00 +27°C° 0 mm 3 mps 738 mmHg 49%
    11:00 +28°C° 0 mm 3 mps 738 mmHg 47%
    12:00 +29°C° 0 mm 3 mps 738 mmHg 45%
    13:00 +29°C° 0 mm 2 mps 737 mmHg 44%
    14:00 +30°C° 0 mm 2 mps 737 mmHg 43%
    15:00 +30°C° 0 mm 2 mps 737 mmHg 41%
    16:00 +30°C° 0.1 mm 3 mps 737 mmHg 44%
    17:00 +29°C° 0.1 mm 3 mps 737 mmHg 47%
    18:00 +28°C° 0.1 mm 4 mps 737 mmHg 50%
    19:00 +27°C° 0.8 mm 4 mps 737 mmHg 57%
    20:00 +25°C° 0.8 mm 4 mps 738 mmHg 63%
    21:00 +22°C° 0.8 mm 4 mps 738 mmHg 70%
    22:00 +21°C° 0.3 mm 3 mps 738 mmHg 72%
    23:00 +20°C° 0.3 mm 3 mps 738 mmHg 74%

    7 June, Sunday

    Time Temperature Precipitation Wind Pressure Humidity
    00:00 +19°C° 0.3 mm 2 mps 738 mmHg 77%
    01:00 +19°C° 0 mm 2 mps 738 mmHg 76%
    02:00 +20°C° 0 mm 1 mps 738 mmHg 75%
    03:00 +19°C° 0 mm 1 mps 737 mmHg 75%
    04:00 +20°C° 0 mm 1 mps 738 mmHg 72%
    05:00 +21°C° 0 mm 1 mps 738 mmHg 69%
    06:00 +20°C° 0 mm 0 mps 738 mmHg 67%
    07:00 +23°C° 0 mm 1 mps 738 mmHg 61%
    08:00 +25°C° 0 mm 1 mps 738 mmHg 55%
    09:00 +26°C° 0 mm 2 mps 738 mmHg 50%
    10:00 +27°C° 0 mm 2 mps 738 mmHg 47%
    11:00 +28°C° 0 mm 2 mps 738 mmHg 44%
    12:00 +29°C° 0 mm 2 mps 737 mmHg 41%
    13:00 +30°C° 0.1 mm 2 mps 737 mmHg 40%
    14:00 +30°C° 0.1 mm 2 mps 737 mmHg 38%
    15:00 +31°C° 0.1 mm 2 mps 736 mmHg 37%
    16:00 +30°C° 0.1 mm 2 mps 736 mmHg 39%
    17:00 +30°C° 0.1 mm 2 mps 736 mmHg 41%
    18:00 +30°C° 0.1 mm 2 mps 736 mmHg 42%
    19:00 +28°C° 0.1 mm 3 mps 737 mmHg 46%
    20:00 +26°C° 0.1 mm 3 mps 737 mmHg 49%
    21:00 +25°C° 0.1 mm 4 mps 737 mmHg 53%
    22:00 +22°C° 0 mm 4 mps 737 mmHg 54%
    23:00 +21°C° 0 mm 3 mps 737 mmHg 55%

    8 June, Monday

    Time Temperature Precipitation Wind Pressure Humidity
    00:00 +20°C° 0 mm 3 mps 737 mmHg 57%
    01:00 +20°C° 0 mm 2 mps 737 mmHg 58%
    02:00 +20°C° 0 mm 1 mps 736 mmHg 59%
    03:00 +20°C° 0 mm 1 mps 736 mmHg 60%
    04:00 +21°C° 0 mm 1 mps 736 mmHg 57%
    05:00 +22°C° 0 mm 1 mps 736 mmHg 55%
    06:00 +21°C° 0 mm 0 mps 736 mmHg 53%
    07:00 +24°C° 0 mm 1 mps 736 mmHg 49%
    08:00 +26°C° 0 mm 1 mps 736 mmHg 44%
    09:00 +27°C° 0 mm 1 mps 736 mmHg 39%
    10:00 +28°C° 0 mm 2 mps 736 mmHg 38%
    11:00 +29°C° 0 mm 2 mps 736 mmHg 36%
    12:00 +30°C° 0 mm 2 mps 735 mmHg 34%
    13:00 +31°C° 0 mm 2 mps 735 mmHg 33%
    14:00 +31°C° 0 mm 2 mps 735 mmHg 32%
    15:00 +31°C° 0 mm 2 mps 735 mmHg 31%
    16:00 +31°C° 0 mm 2 mps 735 mmHg 33%
    17:00 +31°C° 0 mm 2 mps 735 mmHg 35%
    18:00 +30°C° 0 mm 2 mps 735 mmHg 37%
    19:00 +28°C° 0 mm 3 mps 735 mmHg 40%
    20:00 +27°C° 0 mm 4 mps 735 mmHg 42%
    21:00 +25°C° 0 mm 5 mps 735 mmHg 45%
    22:00 +23°C° 0 mm 4 mps 735 mmHg 47%
    23:00 +22°C° 0 mm 3 mps 735 mmHg 49%
    Show more